[[{"header":{"parameterUnit":"m.s-1","parameterCategory":1,"la1":30.2991,"la2":30.254,"lo1":-89.0895,"lo2":-89.0444,"dy":0.0017,"dx":0.0017,"nx":28,"ny":28,"refTime":"2025-09-18T21:00:00:Z","depth":0,"parameterNumber":2,"parameterNumberName":"U-component_of_WINDS"},"data":[0,0,0,0,0,0,0,0,0,0,0,0,0,0,0,0,0,0,0,0,0,0,0,0,0,0,0,0,0,0,0,0,0,0,0,0,0,0,0,0,0,0,0,0,0,0,0,0,0,0,0,0,0,0,0,0,0,0,-2.131,-2.131,0,-2.1232,-2.1231,-2.123,-2.1166,-2.1165,-2.1165,-2.1164,-2.1083,-2.1081,-2.108,0,0,0,0,0,0,0,0,0,0,0,0,0,-2.1407,-2.1406,-2.1311,-2.131,-2.1309,-2.1232,-2.1231,-2.1229,-2.1166,-2.1165,-2.1164,-2.1164,-2.1083,-2.1081,-2.108,0,0,0,0,0,0,0,0,0,0,0,0,0,-2.1351,-2.1405,-2.1311,-2.1268,-2.1263,-2.1232,-2.1231,-2.1229,-2.1166,-2.1165,-2.1164,-2.1163,-2.1084,-2.1082,-2.1079,-2.1085,0,0,-2.1072,-2.1071,0,0,0,0,0,0,0,0,-2.1354,-2.1347,-2.1275,-2.1271,-2.1265,-2.1208,-2.1235,-2.1181,-2.1166,-2.1203,-2.1164,-2.1163,-2.1125,-2.1119,-2.1107,-2.1081,-2.1077,-2.1072,-2.1071,-2.107,-2.1069,0,0,0,0,0,0,0,-2.1358,-2.135,-2.1279,-2.1274,-2.1268,-2.1253,-2.1243,-2.1224,-2.117,-2.12,-2.1195,-2.1186,-2.1122,-2.1109,-2.1104,-2.1076,-2.1072,-2.107,-2.1069,-2.1068,-2.1052,-2.1053,0,0,0,0,0,0,-2.1368,-2.1354,-2.1282,-2.1277,-2.1308,-2.1252,-2.1241,-2.1227,-2.117,-2.1161,-2.1187,-2.1184,-2.1113,-2.1107,-2.1101,-2.1104,-2.107,-2.1067,-2.1066,-2.1051,-2.1053,-2.1054,0,0,0,0,0,0,-2.1371,-2.1363,-2.1285,-2.1314,-2.1303,-2.1251,-2.1235,-2.1226,-2.1213,-2.1161,-2.1151,-2.1184,-2.1112,-2.1104,-2.109,-2.11,-2.1066,-2.1064,-2.105,-2.1052,-2.1053,-2.111,0,0,0,0,0,0,-2.1374,-2.1364,-2.1365,-2.1315,-2.1302,-2.1274,-2.1236,-2.1225,-2.1209,-2.1203,-2.1155,-2.1146,-2.1111,-2.1093,-2.1087,-2.1097,-2.1062,-2.1049,-2.1051,-2.1053,-2.1107,-2.1113,-2.1119,0,0,0,0,0,-2.1377,-2.1384,-2.1365,-2.1357,-2.1302,-2.1275,-2.1268,-2.1227,-2.121,-2.1211,-2.1178,-2.1148,-2.1101,-2.1092,-2.1085,-2.1094,-2.1048,-2.105,-2.1052,-2.1104,-2.1112,-2.1119,0,0,0,0,0,0,-2.1436,-2.1376,-2.1355,-2.1345,-2.1316,-2.1264,-2.1264,-2.1237,-2.1211,-2.1207,-2.1158,-2.1148,-2.1139,-2.1115,-2.1107,-2.1097,-2.107,-2.1071,-2.1112,-2.1119,-2.1125,-2.1131,-2.1061,0,0,0,0,0,-2.1448,-2.1431,-2.138,-2.1376,-2.1362,-2.1316,-2.1303,-2.1275,-2.1242,-2.1229,-2.1195,-2.1165,-2.1144,-2.113,-2.1107,-2.1104,-2.1093,-2.1106,-2.1112,-2.1117,-2.1118,-2.1116,-2.1121,-2.1061,-2.1061,-2.1061,0,0,-2.1472,-2.1437,-2.1429,-2.1387,-2.1361,-2.1345,-2.1306,-2.129,-2.1278,-2.1227,-2.1211,-2.1185,-2.1148,-2.114,-2.1134,-2.1119,-2.1133,-2.112,-2.1125,-2.1123,-2.1119,-2.1124,-2.113,-2.1062,-2.1062,-2.1062,0,0,-2.1507,-2.1479,-2.1473,-2.1448,-2.141,-2.1379,-2.1378,-2.1331,-2.1313,-2.1296,-2.1258,-2.1243,-2.1207,-2.1182,-2.1165,-2.1194,-2.1166,-2.1189,-2.1219,-2.1217,-2.1222,-2.1226,-2.1236,-2.1241,-2.119,-2.119,-2.119,0,-2.1541,-2.1515,-2.1474,-2.1461,-2.1444,-2.1398,-2.1392,-2.137,-2.1326,-2.1315,-2.13,-2.1255,-2.1226,-2.1212,-2.1219,-2.1207,-2.1204,-2.1193,-2.1224,-2.1228,-2.1231,-2.1241,-2.1245,-2.1193,-2.1193,-2.1192,-2.1192,0,-2.156,-2.1543,-2.1543,-2.1502,-2.1486,-2.1476,-2.1434,-2.1422,-2.1396,-2.1367,-2.1352,-2.1317,-2.1287,-2.1282,-2.1256,-2.1264,-2.1256,-2.1233,-2.1206,-2.124,-2.1249,-2.1252,-2.1197,-2.1196,-2.1195,-2.1195,0,0,-2.1627,-2.1566,-2.1566,-2.1548,-2.1503,-2.1489,-2.1479,-2.145,-2.1441,-2.1413,-2.1403,-2.1375,-2.1354,-2.1335,-2.1306,-2.1305,-2.1331,-2.1282,-2.1281,-2.1292,-2.1339,-2.1356,-2.1361,-2.1312,-2.1313,-2.1313,-2.1342,0,-2.1655,-2.1633,-2.1597,-2.1587,-2.1571,-2.1529,-2.152,-2.1492,-2.1466,-2.1449,-2.142,-2.1401,-2.1375,-2.1363,-2.136,-2.1329,-2.134,-2.1326,-2.1303,-2.1303,-2.1313,-2.1365,-2.1382,-2.141,-2.1345,-2.1345,-2.1346,0,-2.1684,-2.1659,-2.1648,-2.1606,-2.1598,-2.1591,-2.1562,-2.1547,-2.1515,-2.1496,-2.1476,-2.1446,-2.1433,-2.1409,-2.1392,-2.1384,-2.1372,-2.1356,-2.1356,-2.1352,-2.1326,-2.1361,-2.1418,-2.1423,-2.135,-2.135,-2.1349,0,-2.1735,-2.1699,-2.1688,-2.1673,-2.1624,-2.162,-2.1599,-2.1567,-2.1552,-2.1528,-2.1518,-2.1493,-2.1478,-2.146,-2.1424,-2.1409,-2.1411,-2.1383,-2.1395,-2.1396,-2.1396,-2.1396,-2.1451,-2.139,-2.139,-2.139,-2.139,0,-2.1769,-2.1764,-2.171,-2.1703,-2.1697,-2.1655,-2.165,-2.1625,-2.1597,-2.1585,-2.1548,-2.1537,-2.149,-2.1475,-2.1447,-2.1437,-2.1431,-2.1416,-2.1408,-2.1419,-2.1421,-2.141,-2.1407,-2.1391,-2.1391,-2.139,-2.139,0,-2.1823,-2.1787,-2.1772,-2.1728,-2.1716,-2.1714,-2.1676,-2.1668,-2.1641,-2.1626,-2.162,-2.1578,-2.1558,-2.152,-2.149,-2.1471,-2.1467,-2.1454,-2.1478,-2.1473,-2.1487,-2.1486,-2.1536,-2.1541,-2.1478,-2.1478,-2.1479,0,-2.1847,-2.1842,-2.1798,-2.1787,-2.1768,-2.1752,-2.1738,-2.1697,-2.1684,-2.1649,-2.1646,-2.1623,-2.1603,-2.1573,-2.154,-2.1517,-2.1503,-2.1522,-2.1499,-2.151,-2.1503,-2.1503,-2.1503,-2.1527,-2.1528,-2.1528,-2.1529,0,-2.1893,-2.1876,-2.1857,-2.1832,-2.1816,-2.1794,-2.1771,-2.1764,-2.1719,-2.1706,-2.1686,-2.167,-2.164,-2.1618,-2.1591,-2.157,-2.1542,-2.1537,-2.1538,-2.1549,-2.1563,-2.1555,-2.1492,-2.1536,-2.1535,-2.1534,-2.1534,-2.1534,-2.1932,-2.1927,-2.1895,-2.1875,-2.1854,-2.1833,-2.1824,-2.1797,-2.1779,-2.1751,-2.1729,-2.1711,-2.1681,-2.1641,-2.1623,-2.1608,-2.1595,-2.1597,-2.1597,-2.1598,-2.1603,-2.1566,-2.1603,-2.1603,-2.1603,-2.1602,-2.1602,0,-2.1977,-2.1955,-2.1937,-2.1906,-2.1891,-2.1867,-2.184,-2.1829,-2.1814,-2.1788,-2.177,-2.1747,-2.1727,-2.1693,-2.167,-2.1665,-2.1652,-2.166,-2.1659,-2.1655,-2.1616,-2.1617,-2.1671,-2.1671,-2.1671,-2.1671,-2.1671,-2.1671,-2.1998,-2.1987,-2.1967,-2.1946,-2.1924,-2.1906,-2.1893,-2.1874,-2.1854,-2.183,-2.1813,-2.1791,-2.1763,-2.1738,-2.1718,-2.1709,-2.1702,-2.1714,-2.1701,-2.1664,-2.1658,-2.1652,-2.1652,-2.1713,-2.1714,-2.1742,-2.1742,-2.1742]},{"header":{"parameterUnit":"m.s-1","parameterCategory":1,"la1":30.2991,"la2":30.254,"lo1":-89.0895,"lo2":-89.0444,"dy":0.0017,"dx":0.0017,"nx":28,"ny":28,"refTime":"2025-09-18T21:00:00:Z","depth":0,"parameterNumber":3,"parameterNumberName":"V-component_of_WINDS"},"data":[0,0,0,0,0,0,0,0,0,0,0,0,0,0,0,0,0,0,0,0,0,0,0,0,0,0,0,0,0,0,0,0,0,0,0,0,0,0,0,0,0,0,0,0,0,0,0,0,0,0,0,0,0,0,0,0,0,0,1.7634,1.7635,0,1.7657,1.7657,1.7657,1.7747,1.7749,1.7751,1.7753,1.777,1.7768,1.7767,0,0,0,0,0,0,0,0,0,0,0,0,0,1.7665,1.7664,1.7634,1.7635,1.7635,1.7657,1.7657,1.7657,1.7747,1.7749,1.7752,1.7754,1.777,1.7769,1.7767,0,0,0,0,0,0,0,0,0,0,0,0,0,1.7665,1.7663,1.7634,1.7682,1.7687,1.7656,1.7657,1.7657,1.7746,1.7749,1.7752,1.7755,1.7771,1.7769,1.7767,1.769,0,0,1.776,1.7759,0,0,0,0,0,0,0,0,1.7665,1.7664,1.7675,1.7679,1.7684,1.7702,1.7674,1.7668,1.7745,1.7723,1.7753,1.7757,1.7744,1.7745,1.7742,1.769,1.7691,1.7759,1.7758,1.7757,1.7756,0,0,0,0,0,0,0,1.7665,1.7664,1.7643,1.7675,1.768,1.7701,1.7705,1.7673,1.7716,1.7726,1.7732,1.7734,1.7747,1.7744,1.7743,1.7691,1.7759,1.7757,1.7756,1.7755,1.7577,1.7574,0,0,0,0,0,0,1.7659,1.7663,1.7642,1.7644,1.7682,1.7698,1.7702,1.7693,1.7716,1.7723,1.7731,1.7738,1.7746,1.7745,1.7744,1.7654,1.7757,1.7755,1.7754,1.758,1.7576,1.7573,0,0,0,0,0,0,1.7659,1.7656,1.7641,1.7655,1.7655,1.7694,1.7683,1.7692,1.7688,1.7721,1.7728,1.772,1.7748,1.7747,1.7703,1.7655,1.7754,1.7752,1.7584,1.7579,1.7575,1.7473,0,0,0,0,0,0,1.766,1.7656,1.7628,1.7654,1.7654,1.7601,1.7681,1.769,1.7685,1.7694,1.7712,1.7718,1.7751,1.7705,1.77,1.7654,1.775,1.7589,1.7582,1.7576,1.7481,1.7465,1.7452,0,0,0,0,0,1.7661,1.7598,1.7626,1.7623,1.762,1.7598,1.7598,1.7639,1.7681,1.7652,1.7673,1.7717,1.7662,1.77,1.7695,1.7647,1.7592,1.7584,1.7577,1.7487,1.7468,1.7453,0,0,0,0,0,0,1.7562,1.7602,1.7634,1.7578,1.7584,1.7613,1.7578,1.7617,1.761,1.7619,1.7668,1.7672,1.7619,1.763,1.7671,1.7574,1.7634,1.7625,1.7568,1.7551,1.7537,1.7533,1.7748,0,0,0,0,0,1.7535,1.7515,1.755,1.7497,1.7499,1.7538,1.753,1.7561,1.7569,1.7572,1.759,1.7594,1.7578,1.7565,1.7552,1.7485,1.7488,1.7449,1.7435,1.7423,1.7413,1.7376,1.7358,1.7548,1.7548,1.7548,0,0,1.7476,1.7496,1.748,1.7478,1.7487,1.7463,1.754,1.7512,1.7495,1.7567,1.7526,1.7539,1.7547,1.749,1.7466,1.7497,1.7362,1.7413,1.7403,1.74,1.7366,1.7348,1.7332,1.7543,1.7544,1.7544,0,0,1.7357,1.7371,1.7328,1.7336,1.7349,1.7375,1.7365,1.7389,1.7401,1.7361,1.7415,1.7395,1.7366,1.7369,1.7367,1.7251,1.729,1.7245,1.7168,1.7132,1.7117,1.7104,1.7059,1.7043,1.7237,1.7236,1.7236,0,1.7282,1.7251,1.73,1.7269,1.7266,1.7333,1.7289,1.7293,1.73,1.7295,1.7331,1.7297,1.7307,1.7251,1.7223,1.722,1.7208,1.7241,1.7115,1.7103,1.7091,1.7049,1.7033,1.7231,1.7231,1.7232,1.7232,0,1.7156,1.7134,1.7097,1.7104,1.7098,1.706,1.7102,1.7089,1.7121,1.7144,1.7102,1.7117,1.7108,1.7098,1.7129,1.7046,1.7064,1.7107,1.7168,1.7066,1.7028,1.7012,1.7222,1.7224,1.7226,1.7228,0,0,1.6972,1.7009,1.6994,1.6998,1.7018,1.7001,1.6966,1.6959,1.6946,1.6949,1.6919,1.6895,1.6935,1.6932,1.6964,1.6933,1.6836,1.6979,1.698,1.6949,1.6743,1.6708,1.6689,1.6865,1.6862,1.686,1.6741,0,1.6856,1.68,1.6844,1.6778,1.6757,1.6822,1.6792,1.6799,1.682,1.6804,1.6827,1.6807,1.6863,1.6861,1.6833,1.6854,1.6795,1.6864,1.6834,1.6832,1.6826,1.6669,1.6632,1.6519,1.6727,1.6724,1.6723,0,1.6713,1.6711,1.6644,1.6669,1.6661,1.6633,1.663,1.6615,1.6625,1.6642,1.664,1.6681,1.6647,1.671,1.6662,1.6708,1.6699,1.6707,1.6704,1.6699,1.6768,1.6657,1.6485,1.6466,1.67,1.6702,1.6703,0,1.6581,1.6563,1.652,1.6522,1.655,1.6528,1.6539,1.6553,1.6546,1.6543,1.6538,1.6531,1.6526,1.6519,1.6556,1.6599,1.6502,1.6569,1.6512,1.6511,1.6485,1.6485,1.6305,1.6485,1.6486,1.6486,1.6486,0,1.6444,1.64,1.6461,1.6434,1.6386,1.6437,1.6387,1.6405,1.6417,1.6393,1.645,1.6426,1.6478,1.6459,1.6488,1.6442,1.6441,1.6451,1.6459,1.6444,1.6442,1.6435,1.6443,1.6482,1.6483,1.6483,1.6484,0,1.6287,1.6327,1.6284,1.6316,1.6323,1.6285,1.6312,1.6287,1.6313,1.6282,1.6278,1.6317,1.6298,1.6336,1.6321,1.634,1.6275,1.6297,1.6271,1.6276,1.6216,1.622,1.6022,1.5998,1.6197,1.6195,1.6194,0,1.6195,1.6163,1.6192,1.6181,1.6189,1.6171,1.6165,1.6214,1.6205,1.6215,1.6188,1.6175,1.6166,1.6132,1.6157,1.6146,1.6166,1.6097,1.6164,1.615,1.616,1.616,1.6156,1.6082,1.6079,1.6078,1.6076,0,1.6027,1.6049,1.6039,1.6035,1.6026,1.6025,1.6028,1.6016,1.6069,1.6055,1.6037,1.6031,1.6017,1.6001,1.5996,1.6006,1.6047,1.6056,1.6041,1.6024,1.6009,1.6013,1.623,1.6059,1.606,1.6062,1.6063,1.6063,1.5898,1.5871,1.5888,1.5874,1.5882,1.5884,1.5862,1.5886,1.5873,1.5866,1.5897,1.5872,1.5883,1.5881,1.5886,1.5866,1.5896,1.5876,1.587,1.5863,1.5852,1.6016,1.5866,1.5866,1.5867,1.5867,1.5868,0,1.573,1.5744,1.5731,1.5735,1.5723,1.5769,1.5775,1.5761,1.5739,1.5747,1.5738,1.5717,1.5702,1.5728,1.5718,1.5696,1.5715,1.5691,1.5691,1.5692,1.5828,1.584,1.5676,1.5676,1.5676,1.5676,1.5676,1.5676,1.564,1.5598,1.5622,1.5583,1.5598,1.5575,1.5574,1.5575,1.5582,1.5556,1.5545,1.5563,1.5578,1.5569,1.5557,1.5565,1.5557,1.5525,1.5539,1.5664,1.5683,1.57,1.5712,1.5524,1.5523,1.5405,1.5404,1.5403]}]]